Deer Park, WA
on Wednesday, December 12, 2012

Wednesday
Previous Day Next Day
Daily Summary
 ActualAverageRecord
Temperature
Mean Temperature °F 25°F  
Max Temperature 33°F 32°F 44°F (2010)
Min Temperature 32°F 19°F 3°F (2000)
Degree Days
Heating Degree Days 32 40  
Month to date heating degree days 379 459  
Since 1 July heating degree days 2116 2462  
Cooling Degree Days 0 0  
Month to date cooling degree days 0 0  
Year to date cooling degree days 232 187  
Moisture
Dew Point 32°F   
Average Humidity 98    
Maximum Humidity 100    
Minimum Humidity 96    
Precipitation
Precipitation 0.13 in 0.08 in 0.65 in (2008)
Month to date precipitation 1.63 1.06  
Year to date precipitation 25.74 20.45  
Wind
Wind Speed 3 mph   
Max Wind Speed 7 mph   
Max Gust Speed 9 mph   
Visibility 3 miles   
Events Fog , Snow   

Key: T is trace of precipitation, MM is missing value
Source: NWS Daily Summary
Time(PST)TemperatureDew PointHumidity Pressure Visibility Wind DirectionWind SpeedGust SpeedPrecipitationEvents Conditions
12:09 AM 33.8°F 32.0°F 93% 29.56 in 1.5 miles Calm Calm - N/A   Overcast
12:18 AM 33.8°F 32.0°F 93% 29.55 in 3.0 miles Calm Calm - N/A   Overcast
12:34 AM 33.8°F 32.0°F 93% 29.55 in 4.0 miles Calm Calm - N/A   Overcast
12:53 AM 33.1°F 32.0°F 96% 29.61 in 2.0 miles Calm Calm - 0.00 in Snow Light Snow
12:59 AM 33.8°F 32.0°F 93% 29.56 in 1.2 miles Calm Calm - 0.01 in Snow Light Snow
1:22 AM 33.8°F 32.0°F 93% 29.56 in 0.8 miles Calm Calm - 0.02 in Snow Light Snow
1:32 AM 33.8°F 32.0°F 93% 29.56 in 1.0 miles Calm Calm - 0.03 in Snow Light Snow
1:53 AM 33.1°F 32.0°F 96% 29.61 in 1.0 miles Calm Calm - 0.04 in Snow Light Snow
2:24 AM 33.8°F 32.0°F 93% 29.56 in 1.2 miles Calm Calm - 0.01 in Snow Light Snow
2:32 AM 33.8°F 32.0°F 93% 29.56 in 1.5 miles Calm Calm - 0.02 in Snow Light Snow
2:44 AM 33.8°F 32.0°F 93% 29.56 in 2.5 miles Calm Calm - 0.02 in Snow Light Snow
2:53 AM 33.1°F 32.0°F 96% 29.61 in 5.0 miles Calm Calm - 0.02 in Snow Light Snow
3:12 AM 33.8°F 32.0°F 93% 29.56 in 3.0 miles Calm Calm - 0.00 in Snow Light Snow
3:17 AM 33.8°F 32.0°F 93% 29.56 in 1.8 miles Calm Calm - 0.00 in Snow Light Snow
4:53 AM 33.1°F 32.0°F 96% 29.63 in 1.2 miles Calm Calm - 0.02 in Snow Light Snow
5:51 AM 33.8°F 32.0°F 93% 29.59 in 2.0 miles Calm Calm - 0.01 in Snow Light Snow
5:53 AM 33.1°F 32.0°F 96% 29.65 in 2.0 miles Calm Calm - 0.01 in Snow Light Snow
6:08 AM 33.8°F 32.0°F 93% 29.60 in 3.0 miles Calm Calm - 0.00 in   Overcast
6:45 AM 33.8°F 32.0°F 93% 29.61 in 2.5 miles Calm Calm - 0.00 in   Overcast
6:53 AM 32.0°F 32.0°F 100% 29.67 in 1.8 miles Calm Calm - 0.00 in   Overcast
7:31 AM 32.0°F 32.0°F 100% 29.63 in 0.8 miles Calm Calm - N/A   Mist
7:53 AM 32.0°F 32.0°F 100% 29.69 in 0.2 miles Calm Calm - N/A Fog Fog
8:53 AM 32.0°F 32.0°F 100% 29.72 in 0.2 miles Calm Calm - N/A Fog Fog
9:53 AM 32.0°F 32.0°F 100% 29.75 in 0.2 miles SSE 3.5 mph - N/A Fog Fog
10:38 AM 33.8°F 33.8°F 100% 29.70 in 1.2 miles SSE 3.5 mph - N/A   Overcast
10:53 AM 33.1°F 33.1°F 100% 29.76 in 1.8 miles South 4.6 mph - N/A   Overcast
10:55 AM 33.8°F 33.8°F 100% 29.71 in 2.5 miles South 4.6 mph - N/A   Overcast
11:01 AM 33.8°F 33.8°F 100% 29.71 in 4.0 miles South 3.5 mph - N/A   Overcast
11:08 AM 33.8°F 32.0°F 93% 29.71 in 2.5 miles South 5.8 mph - 0.00 in Snow Light Snow
11:14 AM 33.8°F 32.0°F 93% 29.72 in 1.5 miles South 4.6 mph - 0.00 in Snow Light Snow
11:26 AM 33.8°F 33.8°F 100% 29.72 in 3.0 miles South 4.6 mph - 0.00 in   Overcast
11:37 AM 33.8°F 33.8°F 100% 29.72 in 4.0 miles SSE 4.6 mph - 0.00 in   Overcast
11:53 AM 33.1°F 33.1°F 100% 29.78 in 3.0 miles South 4.6 mph - 0.00 in   Overcast
12:44 PM 33.8°F 33.8°F 100% 29.73 in 2.5 miles South 5.8 mph - 0.01 in Snow Light Snow
12:53 PM 33.1°F 33.1°F 100% 29.79 in 4.0 miles South 4.6 mph - 0.01 in   Overcast
1:39 PM 33.8°F 33.8°F 100% 29.75 in 1.8 miles South 5.8 mph - 0.00 in Snow Light Snow
1:46 PM 33.8°F 32.0°F 93% 29.75 in 2.0 miles South 5.8 mph - 0.00 in Snow Light Snow
1:53 PM 33.1°F 32.0°F 96% 29.81 in 2.0 miles South 5.8 mph - 0.00 in Snow Light Snow
2:05 PM 33.8°F 32.0°F 93% 29.76 in 3.0 miles South 5.8 mph - 0.00 in Snow Light Snow
2:46 PM 33.8°F 32.0°F 93% 29.77 in 2.5 miles SSE 4.6 mph - 0.01 in Snow Light Snow
2:53 PM 33.1°F 32.0°F 96% 29.83 in 2.5 miles South 4.6 mph - 0.01 in Snow Light Snow
3:04 PM 32.0°F 32.0°F 100% 29.78 in 3.0 miles SSE 4.6 mph - 0.00 in Snow Light Snow
4:00 PM 32.0°F 32.0°F 100% 29.80 in 2.5 miles SSE 3.5 mph - 0.00 in Snow Light Snow
4:04 PM 32.0°F 32.0°F 100% 29.80 in 3.0 miles South 4.6 mph - 0.00 in Snow Light Snow
4:17 PM 32.0°F 32.0°F 100% 29.81 in 5.0 miles South 4.6 mph - 0.00 in   Overcast
4:53 PM 32.0°F 32.0°F 100% 29.88 in 3.0 miles South 3.5 mph - 0.00 in   Overcast
5:38 PM 32.0°F 32.0°F 100% 29.83 in 2.5 miles SSE 5.8 mph - 0.00 in Snow Light Snow
5:53 PM 32.0°F 32.0°F 100% 29.89 in 2.5 miles South 4.6 mph - 0.00 in Snow Light Snow
6:03 PM 32.0°F 32.0°F 100% 29.84 in 4.0 miles South 4.6 mph - 0.00 in Snow Light Snow
6:53 PM 32.0°F 32.0°F 100% 29.91 in 4.0 miles SSE 4.6 mph - 0.00 in Snow Light Snow
7:53 PM 32.0°F 32.0°F 100% 29.93 in 7.0 miles South 3.5 mph - 0.00 in   Overcast
8:11 PM 32.0°F 32.0°F 100% 29.87 in 6.0 miles SSE 3.5 mph - N/A   Overcast
8:37 PM 32.0°F 32.0°F 100% 29.88 in 6.0 miles SSE 4.6 mph - N/A   Overcast
8:53 PM 32.0°F 32.0°F 100% 29.95 in 4.0 miles SSE 5.8 mph - N/A   Overcast
9:53 PM 32.0°F 32.0°F 100% 29.97 in 9.0 miles South 3.5 mph - N/A   Overcast
10:53 PM 32.0°F 32.0°F 100% 29.99 in 7.0 miles South 3.5 mph - N/A   Overcast
11:53 PM 32.0°F 32.0°F 100% 30.00 in 6.0 miles Calm Calm - N/A   Overcast
Moon Phase
Dec. 12 Dec. 13 Dec. 20 Dec. 28 Jan. 04
Sunrise:07:30 AM (PST) Moon Rise:06:38 AM (PST)12/12
Sunset:03:56 PM (PST) Moon Set:03:39 PM (PST)12/12

Copyright © 2014 The Weather Underground, Inc.